Location: Москва
(55.7504°N, 37.6175°E)
Time: 20:46:30
(UTC+03:00)

Nauka - Pass Details

Date: 26 September 2021
Orbit: 417 x 423 km, 51.6° (Epoch: 26 October)

Event Time Altitude Azimuth Distance (km) Brightness Sun altitude
Rises 18:49:08 0° 250° (WSW) 2,362 ? -5.2°
Reaches altitude 10° 18:51:17 10° 242° (WSW) 1,500 ? -5.5°
Maximum altitude 18:54:27 39° 173° (S) 649 ? -6.0°
Drops below altitude 10° 18:57:37 10° 103° (ESE) 1,504 ? -6.4°
Enters shadow 18:57:55 - 101° (E) 1,617 ? -6.5°
